Location: ??
(35.1715°N, 139.6450°E)
Time: 21:13:00
(UTC+00:00)

Cosmos 1980 - Pass Details

Date: 05 August 2024
Orbit: 837 x 848 km, 71.0° (Epoch: 17 September)

Event Time Altitude Azimuth Distance (km) Brightness Sun altitude
Exits shadow 17:42:23 29° 162° (SSE) 1,500 4.7 -23.6°
Maximum altitude 17:44:54 48° 106° (ESE) 1,091 4.4 -23.2°
Drops below altitude 10° 17:50:18 10° 33° (NNE) 2,465 7.2 -22.4°
Sets 17:52:49 0° 28° (NNE) 3,406 8.1 -22.0°
